OSCAR 7 (AO-7) 1 07530U 74089B 26166.56100884 -.00000033 00000+0 83750-4 0 9999 2 07530 101.9901 179.7907 0012550 133.1072 351.4237 12.53698117360319 PHASE 3B (AO-10) 1 14129U 83058B 26166.42721388 .00000161 00000+0 00000+0 0 9993 2 14129 25.9108 219.8563 6011456 115.1838 317.1369 2.05868643295455 UOSAT 2 (UO-11) 1 14781U 84021B 26166.40912682 .00001009 00000+0 10828-3 0 9990 2 14781 97.8057 132.0037 0007470 178.4123 181.7120 14.90779245256864 LUSAT (LO-19) 1 20442U 90005G 26166.50751370 .00000096 00000+0 51150-4 0 9995 2 20442 98.8851 188.2668 0011025 206.2341 153.8286 14.34122746902153 EYESAT A (AO-27) 1 22825U 93061C 26166.18185475 .00000084 00000+0 48753-4 0 9990 2 22825 98.6881 233.5961 0009521 104.9010 255.3227 14.30941747706719 ITAMSAT (IO-26) 1 22826U 93061D 26166.16186548 .00000083 00000+0 48145-4 0 9995 2 22826 98.6828 233.4933 0010091 90.3104 269.9235 14.31368614707027 RADIO ROSTO (RS15) 1 23439U 94085A 26166.60826656 -.00000053 00000+0 -29520-3 0 9997 2 23439 64.8179 305.7698 0155903 4.1682 356.0502 11.27583472295726 JAS-2 (FO-29) 1 24278U 96046B 26166.53668919 .00000013 00000+0 45334-4 0 9992 2 24278 98.5240 15.6350 0350881 100.7038 263.3808 13.53274267472943 TECHSAT 1B (GO-32) 1 25397U 98043D 26166.58928680 .00000030 00000+0 32966-4 0 9999 2 25397 99.0067 159.3076 0000971 166.4736 193.6468 14.24428093451105 ISS (ZARYA) 1 25544U 98067A 26166.51237796 .00007685 00000+0 14626-3 0 9998 2 25544 51.6337 308.3821 0004850 189.0196 171.0706 15.49243792571497 PCSAT (NO-44) 1 26931U 01043C 26166.62271618 .00000084 00000+0 62366-4 0 9991 2 26931 67.0507 248.3182 0006076 264.5919 95.4489 14.31955610290220 SAUDISAT 1C (SO-50) 1 27607U 02058C 26166.33462240 .00000861 00000+0 11895-3 0 9993 2 27607 64.5510 134.7172 0075306 262.8143 96.4397 14.83043230264184 CUTE-1 (CO-55) 1 27844U 03031E 26166.49171906 .00000237 00000+0 12167-3 0 9991 2 27844 98.6736 175.0719 0009420 182.9125 177.2000 14.24334794191435 CUBESAT XI-IV (CO-57) 1 27848U 03031J 26166.47932631 .00000199 00000+0 10658-3 0 9993 2 27848 98.6767 174.7737 0008908 202.2653 157.8140 14.23619986191135 MOZHAETS 4 (RS22) 1 27939U 03042A 26166.65533953 .00000810 00000+0 13307-3 0 9994 2 27939 98.3461 350.9709 0009957 275.3429 172.8997 14.73465436215327 CUBESAT XI-V 1 28895U 05043F 26166.36421164 .00001202 00000+0 19691-3 0 9995 2 28895 98.2983 321.9478 0013522 206.7180 153.3331 14.72627055101486 CUTE-1.7+APD II (CO-65) 1 32785U 08021C 26166.59150092 .00003848 00000+0 24445-3 0 9992 2 32785 97.8271 147.9768 0009975 44.1299 316.0723 15.09439257984954 SEEDS II (CO-66) 1 32791U 08021J 26166.56872795 .00015199 00000+0 48345-3 0 9994 2 32791 97.7511 164.3889 0001297 9.9046 350.2220 15.32704207987043 YUBILEINY (RS30) 1 32953U 08025A 26166.56937948 .00000093 00000+0 60035-3 0 9997 2 32953 82.5039 356.4473 0018919 317.5762 42.3854 12.43179648819494 KKS-1 (KISEKI) 1 33499U 09002H 26166.56994226 .00001162 00000+0 14942-3 0 9995 2 33499 98.1190 88.9865 0006614 302.1510 57.9061 14.83120405935958 SWISSCUBE 1 35932U 09051B 26166.25297169 .00000842 00000+0 17592-3 0 9999 2 35932 98.4038 74.1075 0005844 209.7614 150.3255 14.62478329888876 BEESAT-1 1 35933U 09051C 26166.46675995 .00000703 00000+0 15091-3 0 9998 2 35933 98.3966 73.9642 0004133 223.5476 136.5399 14.61718018888936 ITUPSAT1 1 35935U 09051E 26166.45614387 .00000634 00000+0 14088-3 0 9995 2 35935 98.4051 73.1472 0006197 240.3357 119.7226 14.60438270888484 XIWANG-1 (HOPE-1) 1 36122U 09072B 26166.57190135 -.00000409 00000+0 -95495-3 0 9993 2 36122 100.4024 120.4297 0006853 235.6610 124.3855 13.16437666792792 O/OREOS (USA 219) 1 37224U 10062C 26166.18705999 .00002000 00000+0 19439-3 0 9996 2 37224 71.9714 84.8700 0012504 67.4228 292.8264 14.93736891116346 JUGNU 1 37839U 11058B 26166.12908786 .00000399 00000+0 69103-4 0 9990 2 37839 19.9618 320.9329 0018627 53.5996 113.0994 14.13776231758737 SRMSAT 1 37841U 11058D 26166.09346315 .00000356 00000+0 49299-4 0 9990 2 37841 19.9720 72.1399 0011838 180.5594 207.7984 14.11575160757521 STRAND-1 1 39090U 13009E 26166.45470669 .00000220 00000+0 88443-4 0 9990 2 39090 98.3921 346.7318 0007647 231.1589 128.8916 14.37162360696818 ZACUBE-1 (TSHEPISOSAT) 1 39417U 13066B 26166.40761859 .00002611 00000+0 20511-3 0 9992 2 39417 97.8082 128.7351 0040604 253.8926 105.7825 15.01179836680469 GOMX-1 1 39430U 13066Q 26166.61981649 .00001915 00000+0 29130-3 0 9993 2 39430 97.6479 7.1816 0130160 82.5196 279.0777 14.69456470669688 CUBEBUG-2 (LO-74) 1 39440U 13066AA 26166.38852800 .00003783 00000+0 35100-3 0 9993 2 39440 97.8905 115.3590 0058508 34.8517 325.6511 14.93747885676725 FUNCUBE-1 (AO-73) 1 39444U 13066AE 26166.46559247 .00005832 00000+0 36309-3 0 9994 2 39444 97.8272 137.8755 0035504 207.0229 152.9152 15.09471681679409 UWE-3 1 39446U 13066AG 26166.41095872 .00003615 00000+0 31229-3 0 9993 2 39446 97.8693 122.4726 0047855 327.0614 32.7628 14.97011844677317 UNISAT-6 1 40012U 14033C 26166.38519403 .00002497 00000+0 27116-3 0 9993 2 40012 97.7874 319.1286 0046291 75.0953 285.5383 14.88238232645899 DUCHIFAT-1 1 40021U 14033M 26166.42257015 .00087303 00000+0 90897-3 0 9991 2 40021 98.0462 225.3358 0003280 119.3803 240.7782 15.64281009655477 QB50P1 1 40025U 14033R 26166.56831469 .00007133 00000+0 35185-3 0 9993 2 40025 98.0960 177.6007 0007682 221.6020 138.4628 15.18240486652788 LILACSAT-2 1 40908U 15049K 26166.59528161 .00014930 00000+0 25496-3 0 9993 2 40908 97.4644 203.3763 0005412 252.6987 107.3673 15.51400500595504 FOX-1A (AO-85) 1 40967U 15058D 26166.60861654 .00002082 00000+0 19417-3 0 9998 2 40967 64.7762 283.8894 0130356 57.2038 304.1552 14.90963368113335 CAS-2T & KS-1Q 1 41847U 16066G 26166.16278910 .00001557 00000+0 22513-3 0 9991 2 41847 98.3821 241.9223 0342730 135.6008 227.3214 14.44688208504502 RADFXSAT (FOX-1B) 1 43017U 17073E 26166.62044886 .00007281 00000+0 31888-3 0 9990 2 43017 97.4705 33.8675 0149766 334.7230 24.6723 15.12698959465156 DIWATA-2B 1 43678U 18084H 26166.63605284 .00002304 00000+0 18806-3 0 9998 2 43678 98.1175 2.7770 0012391 175.1096 185.0250 15.00446370415987 ES'HAIL 2 1 43700U 18090A 26166.54929358 .00000146 00000+0 00000+0 0 9997 2 43700 0.0181 9.4032 0001579 115.5396 2.4214 1.00269803 27669 FOX-1CLIFF (AO-95) 1 43770U 18099N 26166.11139331 .00011091 00000+0 42485-3 0 9998 2 43770 97.4386 226.3649 0008201 5.4671 354.6656 15.26676025412907 ITASAT 1 43786U 18099AE 26166.37485499 .00005444 00000+0 26262-3 0 9992 2 43786 97.4029 217.9224 0012300 6.7006 353.4391 15.19036687412633 JY1SAT (JO-97) 1 43803U 18099AX 26166.07308693 .00015590 00000+0 48189-3 0 9994 2 43803 97.4132 228.8995 0004244 272.7751 87.3006 15.33596637413307 UWE-4 1 43880U 18111E 26166.53236111 .00028345 00000+0 58058-3 0 9998 2 43880 97.5855 94.8474 0005794 350.1958 9.9176 15.46038533410528 TIANYAN 01 1 44881U 19093C 26166.56387360 .00001261 00000+0 14821-3 0 9994 2 44881 97.7539 238.8353 0015112 91.9147 268.3800 14.86519165351170 RS-44 & BREEZE-KM R/B 1 44909U 19096E 26166.59792764 .00000010 00000+0 -90401-5 0 9991 2 44909 82.5218 340.7612 0218109 147.8718 213.5894 12.79748870302149 SALSAT 1 46495U 20068K 26166.57567589 .00006463 00000+0 22682-3 0 9998 2 46495 97.8844 169.5420 0008147 315.1312 44.9267 15.29779983315116 XW-3 (CAS-9) 1 50466U 21131B 26166.59680760 .00000478 00000+0 16137-3 0 9990 2 50466 98.4985 258.9948 0005366 100.4652 259.7142 14.41356573234883 GREENCUBE (IO-117) 1 53109U 22080E 26164.29338770 -.00000003 00000+0 00000+0 0 9990 2 53109 70.1444 299.5995 0008910 290.4576 69.5127 6.42583230 91811 UMKA 1 (RS40S) 1 57172U 23091G 26166.58060113 .00005909 00000+0 27048-3 0 9998 2 57172 97.5052 225.2839 0014191 122.6426 237.6181 15.20802870163766 CUBESX-HSE 3 (RS42S) 1 57178U 23091N 26166.60543383 .00011354 00000+0 37861-3 0 9997 2 57178 97.5095 232.1724 0012051 99.5707 260.6896 15.31181196164185 MONITOR-3 (RS58S) 1 57180U 23091Q 26166.56094179 .00009009 00000+0 33356-3 0 9998 2 57180 97.5087 229.9948 0013114 105.7902 254.4785 15.27814739164043 MONITOR-4 (RS57S) 1 57182U 23091S 26166.60558081 .00008676 00000+0 32055-3 0 9996 2 57182 97.5081 230.0109 0013114 105.9945 254.2740 15.27900036164056 MONITOR-2 (RS39S) 1 57184U 23091U 26166.59983944 .00004299 00000+0 20897-3 0 9994 2 57184 97.5075 224.8929 0012696 115.8822 244.3723 15.18898081163719 SVYATOBOR 1 (RS60S) 1 57187U 23091X 26166.55176982 .00007614 00000+0 29324-3 0 9997 2 57187 97.5094 230.3596 0010896 99.2735 260.9736 15.26592156164063 VIZARD-METEO (RS38S) 1 57189U 23091Z 26166.58411197 .00014203 00000+0 40705-3 0 9990 2 57189 97.5097 236.0367 0008358 82.5639 277.6554 15.35983366164447 POLYTECH-UNIVERSE 3 (R*) 1 57191U 23091AB 26166.56138178 .00004608 00000+0 22213-3 0 9998 2 57191 97.5050 224.3593 0016790 131.9468 228.3201 15.19099973163702 UTMN 2 (RS27S) 1 57203U 23091AP 26166.55856940 .00011036 00000+0 35897-3 0 9990 2 57203 97.5092 233.7568 0009341 88.6525 271.5787 15.32018248164299 KUZGTU 1 (RS47S) 1 57217U 23091AV 26166.59513132 .00010781 00000+0 37489-3 0 9997 2 57217 97.5067 231.0588 0012337 102.9075 257.3544 15.29831992164139 SONATE-2 1 59112U 24043Q 26166.40491472 .00034026 00000+0 44395-3 0 9995 2 59112 97.5529 316.6914 0007009 201.6141 158.4820 15.58601060127615 MESAT1 1 60209U 24125G 26166.56984892 .00049760 00000+0 54559-3 0 9999 2 60209 97.2286 24.0156 0009428 209.2341 150.8391 15.63051730109317 OOV-CUBE (TUBSAT-30) 1 60240U 24128F 26166.59161287 .00001776 00000+0 14516-3 0 9999 2 60240 61.9945 231.1374 0044790 133.3400 227.1438 15.02768887105877 COLIBRI-S (RS67S) 1 61746U 24199M 26166.57476311 .00018687 00000+0 36286-3 0 9991 2 61746 97.2995 40.4148 0006273 287.0923 72.9640 15.47669217137161 HORS 3 (RS81S) 1 61753U 24199U 26166.60934053 .00031368 00000+0 47018-3 0 9991 2 61753 97.2979 42.4191 0003721 288.0137 72.0711 15.54881177137310 HORS 4 (RS82S) 1 61754U 24199V 26166.57467191 .00042362 00000+0 53278-3 0 9993 2 61754 97.2926 43.5749 0003037 269.4884 90.6025 15.59554792137393 SIT-2086 1 61764U 24199AF 26166.58566734 .00031879 00000+0 51148-3 0 9993 2 61764 97.2936 42.8771 0004447 259.0875 100.9878 15.52993518134184 HYPERVIEW 1G (RS66S) 1 61772U 24199AP 26166.60190755 .00120488 00000+0 78713-3 0 9993 2 61772 97.2877 46.2417 0003480 226.5941 133.5035 15.75482058134422 ALTAIR (RS65S) 1 61779U 24199AW 26166.61461902 .00007696 00000+0 21444-3 0 9990 2 61779 97.3029 35.9762 0011274 317.6436 42.3937 15.37002848136870 ASRTU-1 (AO-123) 1 61781U 24199AY 26166.60114316 .00006603 00000+0 19233-3 0 9996 2 61781 97.3000 35.2866 0012435 320.5786 39.4552 15.35656942133685 SAMSAT-IONOSPHERE (RS7*) 1 61784U 24199BB 26166.58177463 .00040071 00000+0 54414-3 0 9995 2 61784 97.2947 42.4319 0005855 284.7984 75.2622 15.57504956137310 RTU MIREA 1 (RS51S) 1 61785U 24199BC 26166.60973207 .00046962 00000+0 55964-3 0 9995 2 61785 97.2934 43.2839 0005492 275.5841 84.4790 15.60939949134223 TEVEL2-4 1 63213U 25052D 26166.16079356 .00014823 00000+0 44473-3 0 9999 2 63213 97.3913 62.5494 0004846 107.3580 252.8193 15.34549992 69809 TEVEL2-5 1 63214U 25052E 26166.50714160 .00015702 00000+0 47332-3 0 9991 2 63214 97.3909 62.8448 0004755 107.9280 252.2482 15.34389584 69858 TEVEL2-6 1 63215U 25052F 26166.45421808 .00014975 00000+0 45210-3 0 9994 2 63215 97.3915 62.7761 0004671 108.6521 251.5230 15.34350757 69848 TEVEL2-1 1 63217U 25052H 26166.22168631 .00014089 00000+0 43283-3 0 9997 2 63217 97.3885 62.1701 0004698 117.4022 242.7699 15.33812138 69797 TEVEL2-3 1 63218U 25052J 26166.21640006 .00014569 00000+0 44668-3 0 9999 2 63218 97.3890 62.1864 0004653 117.3895 242.7821 15.33867104 69792 TEVEL2-2 1 63219U 25052K 26166.22201124 .00014328 00000+0 43999-3 0 9994 2 63219 97.3886 62.1729 0004671 117.7960 242.3756 15.33820586 69791 TEVEL2-9 1 63237U 25052AD 26166.26221951 .00013263 00000+0 43321-3 0 9994 2 63237 97.3947 61.5923 0007638 136.2266 223.9582 15.31847587 69733 TEVEL2-7 1 63238U 25052AE 26166.23742285 .00012882 00000+0 42471-3 0 9991 2 63238 97.3951 61.4847 0007732 136.5558 223.6294 15.31552974 69724 TEVEL2-8 1 63239U 25052AF 26166.50699842 .00013370 00000+0 44078-3 0 9990 2 63239 97.3950 61.7304 0007754 136.5757 223.6096 15.31544661 69768 INNOSAT 16 (RS92S7) 1 64878U 25155C 26166.55891593 .00004909 00000+0 19677-3 0 9991 2 64878 97.4562 133.6919 0010352 181.0933 179.0284 15.25442165 80426 GEOSCAN 6 (RS92S6) 1 64879U 25155D 26166.61207312 .00008518 00000+0 29452-3 0 9991 2 64879 97.4555 135.1578 0008143 167.4045 192.7400 15.30126109 80520 GEOSCAN 1 (RS92S1) 1 64880U 25155E 26166.61513305 .00009128 00000+0 30970-3 0 9990 2 64880 97.4552 135.3075 0008087 167.1433 193.0015 15.30719580 80536 239ALFEROV (RS61S) 1 64881U 25155F 26166.58701928 .00012431 00000+0 39309-3 0 9993 2 64881 97.4552 135.8353 0007827 164.0551 196.0939 15.32903030 80567 GEOSCAN 2 (RS92S2) 1 64890U 25155Q 26166.60909622 .00009274 00000+0 31198-3 0 9996 2 64890 97.4551 135.4533 0007937 154.0724 206.0916 15.30990500 80546 GEOSCAN 5 (RS92S5) 1 64891U 25155R 26166.57637504 .00011860 00000+0 37159-3 0 9997 2 64891 97.4545 135.9615 0006518 167.5337 192.6068 15.33220893 80574 GEOSCAN 4 (RS92S4) 1 64892U 25155S 26166.56072898 .00012141 00000+0 37848-3 0 9994 2 64892 97.4548 135.9936 0006581 167.2755 192.8655 15.33374261 80578 GEOSCAN 3 (RS92S3) 1 64893U 25155T 26166.56357943 .00014368 00000+0 42030-3 0 9994 2 64893 97.4536 136.4215 0006525 165.4324 194.7108 15.35349050 80600 INNOSAT 3 (RS92S0) 1 64894U 25155U 26166.56253018 .00028811 00000+0 63807-3 0 9996 2 64894 97.4485 138.0196 0006242 155.2066 204.9483 15.43724588 80710 KNACKSAT-2 1 67683U 98067XZ 26166.55673681 .00040813 00000+0 50084-3 0 9997 2 67683 51.6309 302.6773 0009315 207.8758 152.1737 15.59850380 20023